Index of /20260502/WXO-DD/model_caps/3km/00/028
Name Last modified Size Description
Parent Directory -
20260502T00Z_MSC_CAPS_AbsoluteVorticity_IsbL-0250_RLatLon0.03_PT028H.grib2 2026-05-02 06:15 1.0M
20260502T00Z_MSC_CAPS_AbsoluteVorticity_IsbL-0500_RLatLon0.03_PT028H.grib2 2026-05-02 06:15 1.1M
20260502T00Z_MSC_CAPS_AbsoluteVorticity_IsbL-0700_RLatLon0.03_PT028H.grib2 2026-05-02 06:15 1.1M
20260502T00Z_MSC_CAPS_AbsoluteVorticity_IsbL-0850_RLatLon0.03_PT028H.grib2 2026-05-02 06:15 1.2M
20260502T00Z_MSC_CAPS_AbsoluteVorticity_IsbL-1000_RLatLon0.03_PT028H.grib2 2026-05-02 06:15 1.3M
20260502T00Z_MSC_CAPS_AirDensity_AGL-120m_RLatLon0.03_PT028H.grib2 2026-05-02 06:15 1.4M
20260502T00Z_MSC_CAPS_AirDensity_AGL-40m_RLatLon0.03_PT028H.grib2 2026-05-02 06:15 1.4M
20260502T00Z_MSC_CAPS_AirDensity_AGL-80m_RLatLon0.03_PT028H.grib2 2026-05-02 06:15 1.4M
20260502T00Z_MSC_CAPS_AirTemp_AGL-120m_RLatLon0.03_PT028H.grib2 2026-05-02 06:15 1.7M
20260502T00Z_MSC_CAPS_AirTemp_AGL-2m_RLatLon0.03_PT028H.grib2 2026-05-02 06:15 1.7M
20260502T00Z_MSC_CAPS_AirTemp_AGL-40m_RLatLon0.03_PT028H.grib2 2026-05-02 06:15 1.8M
20260502T00Z_MSC_CAPS_AirTemp_AGL-80m_RLatLon0.03_PT028H.grib2 2026-05-02 06:15 1.8M
20260502T00Z_MSC_CAPS_AirTemp_IsbL-0050_RLatLon0.03_PT028H.grib2 2026-05-02 06:15 694K
20260502T00Z_MSC_CAPS_AirTemp_IsbL-0100_RLatLon0.03_PT028H.grib2 2026-05-02 06:15 972K
20260502T00Z_MSC_CAPS_AirTemp_IsbL-0150_RLatLon0.03_PT028H.grib2 2026-05-02 06:15 755K
20260502T00Z_MSC_CAPS_AirTemp_IsbL-0175_RLatLon0.03_PT028H.grib2 2026-05-02 06:15 770K
20260502T00Z_MSC_CAPS_AirTemp_IsbL-0200_RLatLon0.03_PT028H.grib2 2026-05-02 06:15 788K
20260502T00Z_MSC_CAPS_AirTemp_IsbL-0225_RLatLon0.03_PT028H.grib2 2026-05-02 06:15 790K
20260502T00Z_MSC_CAPS_AirTemp_IsbL-0250_RLatLon0.03_PT028H.grib2 2026-05-02 06:15 1.0M
20260502T00Z_MSC_CAPS_AirTemp_IsbL-0275_RLatLon0.03_PT028H.grib2 2026-05-02 06:15 1.0M
20260502T00Z_MSC_CAPS_AirTemp_IsbL-0300_RLatLon0.03_PT028H.grib2 2026-05-02 06:15 1.0M
20260502T00Z_MSC_CAPS_AirTemp_IsbL-0350_RLatLon0.03_PT028H.grib2 2026-05-02 06:15 751K
20260502T00Z_MSC_CAPS_AirTemp_IsbL-0400_RLatLon0.03_PT028H.grib2 2026-05-02 06:15 755K
20260502T00Z_MSC_CAPS_AirTemp_IsbL-0450_RLatLon0.03_PT028H.grib2 2026-05-02 06:15 773K
20260502T00Z_MSC_CAPS_AirTemp_IsbL-0500_RLatLon0.03_PT028H.grib2 2026-05-02 06:15 791K
20260502T00Z_MSC_CAPS_AirTemp_IsbL-0550_RLatLon0.03_PT028H.grib2 2026-05-02 06:15 961K
20260502T00Z_MSC_CAPS_AirTemp_IsbL-0600_RLatLon0.03_PT028H.grib2 2026-05-02 06:15 1.0M
20260502T00Z_MSC_CAPS_AirTemp_IsbL-0650_RLatLon0.03_PT028H.grib2 2026-05-02 06:15 1.0M
20260502T00Z_MSC_CAPS_AirTemp_IsbL-0700_RLatLon0.03_PT028H.grib2 2026-05-02 06:15 1.0M
20260502T00Z_MSC_CAPS_AirTemp_IsbL-0750_RLatLon0.03_PT028H.grib2 2026-05-02 06:15 1.0M
20260502T00Z_MSC_CAPS_AirTemp_IsbL-0800_RLatLon0.03_PT028H.grib2 2026-05-02 06:15 1.1M
20260502T00Z_MSC_CAPS_AirTemp_IsbL-0850_RLatLon0.03_PT028H.grib2 2026-05-02 06:15 1.1M
20260502T00Z_MSC_CAPS_AirTemp_IsbL-0875_RLatLon0.03_PT028H.grib2 2026-05-02 06:15 1.0M
20260502T00Z_MSC_CAPS_AirTemp_IsbL-0900_RLatLon0.03_PT028H.grib2 2026-05-02 06:15 1.0M
20260502T00Z_MSC_CAPS_AirTemp_IsbL-0925_RLatLon0.03_PT028H.grib2 2026-05-02 06:15 1.0M
20260502T00Z_MSC_CAPS_AirTemp_IsbL-0950_RLatLon0.03_PT028H.grib2 2026-05-02 06:15 1.0M
20260502T00Z_MSC_CAPS_AirTemp_IsbL-0970_RLatLon0.03_PT028H.grib2 2026-05-02 06:15 1.1M
20260502T00Z_MSC_CAPS_AirTemp_IsbL-0985_RLatLon0.03_PT028H.grib2 2026-05-02 06:15 1.1M
20260502T00Z_MSC_CAPS_AirTemp_IsbL-1000_RLatLon0.03_PT028H.grib2 2026-05-02 06:15 1.1M
20260502T00Z_MSC_CAPS_AirTemp_IsbL-1015_RLatLon0.03_PT028H.grib2 2026-05-02 06:15 1.1M
20260502T00Z_MSC_CAPS_Albedo_Sfc_RLatLon0.03_PT028H.grib2 2026-05-02 06:15 2.7M
20260502T00Z_MSC_CAPS_CAPE_Sfc_RLatLon0.03_PT028H.grib2 2026-05-02 06:15 105K
20260502T00Z_MSC_CAPS_CloudWater_EAtm_RLatLon0.03_PT028H.grib2 2026-05-02 06:15 1.4M
20260502T00Z_MSC_CAPS_ConvectivePrecip-Accum_Sfc_RLatLon0.03_PT028H.grib2 2026-05-02 06:15 3.8M
20260502T00Z_MSC_CAPS_DewPointDepression_AGL-120m_RLatLon0.03_PT028H.grib2 2026-05-02 06:15 2.0M
20260502T00Z_MSC_CAPS_DewPointDepression_AGL-2m_RLatLon0.03_PT028H.grib2 2026-05-02 06:15 2.1M
20260502T00Z_MSC_CAPS_DewPointDepression_AGL-40m_RLatLon0.03_PT028H.grib2 2026-05-02 06:15 2.0M
20260502T00Z_MSC_CAPS_DewPointDepression_AGL-80m_RLatLon0.03_PT028H.grib2 2026-05-02 06:15 2.0M
20260502T00Z_MSC_CAPS_DewPointDepression_IsbL-0050_RLatLon0.03_PT028H.grib2 2026-05-02 06:15 9.0K
20260502T00Z_MSC_CAPS_DewPointDepression_IsbL-0100_RLatLon0.03_PT028H.grib2 2026-05-02 06:15 102K
20260502T00Z_MSC_CAPS_DewPointDepression_IsbL-0150_RLatLon0.03_PT028H.grib2 2026-05-02 06:15 101K
20260502T00Z_MSC_CAPS_DewPointDepression_IsbL-0175_RLatLon0.03_PT028H.grib2 2026-05-02 06:15 252K
20260502T00Z_MSC_CAPS_DewPointDepression_IsbL-0200_RLatLon0.03_PT028H.grib2 2026-05-02 06:15 396K
20260502T00Z_MSC_CAPS_DewPointDepression_IsbL-0225_RLatLon0.03_PT028H.grib2 2026-05-02 06:15 648K
20260502T00Z_MSC_CAPS_DewPointDepression_IsbL-0250_RLatLon0.03_PT028H.grib2 2026-05-02 06:15 856K
20260502T00Z_MSC_CAPS_DewPointDepression_IsbL-0275_RLatLon0.03_PT028H.grib2 2026-05-02 06:15 1.0M
20260502T00Z_MSC_CAPS_DewPointDepression_IsbL-0300_RLatLon0.03_PT028H.grib2 2026-05-02 06:15 1.1M
20260502T00Z_MSC_CAPS_DewPointDepression_IsbL-0350_RLatLon0.03_PT028H.grib2 2026-05-02 06:15 1.1M
20260502T00Z_MSC_CAPS_DewPointDepression_IsbL-0400_RLatLon0.03_PT028H.grib2 2026-05-02 06:15 1.1M
20260502T00Z_MSC_CAPS_DewPointDepression_IsbL-0450_RLatLon0.03_PT028H.grib2 2026-05-02 06:15 1.1M
20260502T00Z_MSC_CAPS_DewPointDepression_IsbL-0500_RLatLon0.03_PT028H.grib2 2026-05-02 06:15 1.2M
20260502T00Z_MSC_CAPS_DewPointDepression_IsbL-0550_RLatLon0.03_PT028H.grib2 2026-05-02 06:15 1.2M
20260502T00Z_MSC_CAPS_DewPointDepression_IsbL-0600_RLatLon0.03_PT028H.grib2 2026-05-02 06:15 1.3M
20260502T00Z_MSC_CAPS_DewPointDepression_IsbL-0650_RLatLon0.03_PT028H.grib2 2026-05-02 06:15 1.3M
20260502T00Z_MSC_CAPS_DewPointDepression_IsbL-0700_RLatLon0.03_PT028H.grib2 2026-05-02 06:15 1.3M
20260502T00Z_MSC_CAPS_DewPointDepression_IsbL-0750_RLatLon0.03_PT028H.grib2 2026-05-02 06:15 1.3M
20260502T00Z_MSC_CAPS_DewPointDepression_IsbL-0800_RLatLon0.03_PT028H.grib2 2026-05-02 06:15 1.4M
20260502T00Z_MSC_CAPS_DewPointDepression_IsbL-0850_RLatLon0.03_PT028H.grib2 2026-05-02 06:15 1.4M
20260502T00Z_MSC_CAPS_DewPointDepression_IsbL-0875_RLatLon0.03_PT028H.grib2 2026-05-02 06:15 1.4M
20260502T00Z_MSC_CAPS_DewPointDepression_IsbL-0900_RLatLon0.03_PT028H.grib2 2026-05-02 06:15 1.4M
20260502T00Z_MSC_CAPS_DewPointDepression_IsbL-0925_RLatLon0.03_PT028H.grib2 2026-05-02 06:15 1.3M
20260502T00Z_MSC_CAPS_DewPointDepression_IsbL-0950_RLatLon0.03_PT028H.grib2 2026-05-02 06:15 1.3M
20260502T00Z_MSC_CAPS_DewPointDepression_IsbL-0970_RLatLon0.03_PT028H.grib2 2026-05-02 06:15 1.3M
20260502T00Z_MSC_CAPS_DewPointDepression_IsbL-0985_RLatLon0.03_PT028H.grib2 2026-05-02 06:15 1.3M
20260502T00Z_MSC_CAPS_DewPointDepression_IsbL-1000_RLatLon0.03_PT028H.grib2 2026-05-02 06:15 1.3M
20260502T00Z_MSC_CAPS_DewPointDepression_IsbL-1015_RLatLon0.03_PT028H.grib2 2026-05-02 06:15 1.3M
20260502T00Z_MSC_CAPS_DewPoint_AGL-120m_RLatLon0.03_PT028H.grib2 2026-05-02 06:15 3.6M
20260502T00Z_MSC_CAPS_DewPoint_AGL-2m_RLatLon0.03_PT028H.grib2 2026-05-02 06:15 1.7M
20260502T00Z_MSC_CAPS_DewPoint_AGL-40m_RLatLon0.03_PT028H.grib2 2026-05-02 06:15 3.6M
20260502T00Z_MSC_CAPS_DewPoint_AGL-80m_RLatLon0.03_PT028H.grib2 2026-05-02 06:15 3.6M
20260502T00Z_MSC_CAPS_DownwardLongwaveRadiationFlux-Accum_Sfc_RLatLon0.03_PT028H.grib2 2026-05-02 06:15 2.4M
20260502T00Z_MSC_CAPS_DownwardShortwaveRadiationFlux-Accum_NTAtm_RLatLon0.03_PT028H.grib2 2026-05-02 06:15 448K
20260502T00Z_MSC_CAPS_DownwardShortwaveRadiationFlux-Accum_Sfc_RLatLon0.03_PT028H.grib2 2026-05-02 06:15 2.8M
20260502T00Z_MSC_CAPS_FreezingRain-Accum_Sfc_RLatLon0.03_PT028H.grib2 2026-05-02 06:15 880K
20260502T00Z_MSC_CAPS_GeopotentialHeight_IsbL-0050_RLatLon0.03_PT028H.grib2 2026-05-02 06:15 640K
20260502T00Z_MSC_CAPS_GeopotentialHeight_IsbL-0100_RLatLon0.03_PT028H.grib2 2026-05-02 06:15 768K
20260502T00Z_MSC_CAPS_GeopotentialHeight_IsbL-0150_RLatLon0.03_PT028H.grib2 2026-05-02 06:15 727K
20260502T00Z_MSC_CAPS_GeopotentialHeight_IsbL-0175_RLatLon0.03_PT028H.grib2 2026-05-02 06:15 738K
20260502T00Z_MSC_CAPS_GeopotentialHeight_IsbL-0200_RLatLon0.03_PT028H.grib2 2026-05-02 06:15 747K
20260502T00Z_MSC_CAPS_GeopotentialHeight_IsbL-0225_RLatLon0.03_PT028H.grib2 2026-05-02 06:15 757K
20260502T00Z_MSC_CAPS_GeopotentialHeight_IsbL-0250_RLatLon0.03_PT028H.grib2 2026-05-02 06:15 769K
20260502T00Z_MSC_CAPS_GeopotentialHeight_IsbL-0275_RLatLon0.03_PT028H.grib2 2026-05-02 06:15 779K
20260502T00Z_MSC_CAPS_GeopotentialHeight_IsbL-0300_RLatLon0.03_PT028H.grib2 2026-05-02 06:15 785K
20260502T00Z_MSC_CAPS_GeopotentialHeight_IsbL-0350_RLatLon0.03_PT028H.grib2 2026-05-02 06:15 788K
20260502T00Z_MSC_CAPS_GeopotentialHeight_IsbL-0400_RLatLon0.03_PT028H.grib2 2026-05-02 06:15 782K
20260502T00Z_MSC_CAPS_GeopotentialHeight_IsbL-0450_RLatLon0.03_PT028H.grib2 2026-05-02 06:15 773K
20260502T00Z_MSC_CAPS_GeopotentialHeight_IsbL-0500_RLatLon0.03_PT028H.grib2 2026-05-02 06:15 761K
20260502T00Z_MSC_CAPS_GeopotentialHeight_IsbL-0550_RLatLon0.03_PT028H.grib2 2026-05-02 06:15 749K
20260502T00Z_MSC_CAPS_GeopotentialHeight_IsbL-0600_RLatLon0.03_PT028H.grib2 2026-05-02 06:15 632K
20260502T00Z_MSC_CAPS_GeopotentialHeight_IsbL-0650_RLatLon0.03_PT028H.grib2 2026-05-02 06:15 634K
20260502T00Z_MSC_CAPS_GeopotentialHeight_IsbL-0700_RLatLon0.03_PT028H.grib2 2026-05-02 06:15 634K
20260502T00Z_MSC_CAPS_GeopotentialHeight_IsbL-0750_RLatLon0.03_PT028H.grib2 2026-05-02 06:15 636K
20260502T00Z_MSC_CAPS_GeopotentialHeight_IsbL-0800_RLatLon0.03_PT028H.grib2 2026-05-02 06:15 823K
20260502T00Z_MSC_CAPS_GeopotentialHeight_IsbL-0850_RLatLon0.03_PT028H.grib2 2026-05-02 06:15 830K
20260502T00Z_MSC_CAPS_GeopotentialHeight_IsbL-0875_RLatLon0.03_PT028H.grib2 2026-05-02 06:15 836K
20260502T00Z_MSC_CAPS_GeopotentialHeight_IsbL-0900_RLatLon0.03_PT028H.grib2 2026-05-02 06:15 840K
20260502T00Z_MSC_CAPS_GeopotentialHeight_IsbL-0925_RLatLon0.03_PT028H.grib2 2026-05-02 06:15 851K
20260502T00Z_MSC_CAPS_GeopotentialHeight_IsbL-0950_RLatLon0.03_PT028H.grib2 2026-05-02 06:15 852K
20260502T00Z_MSC_CAPS_GeopotentialHeight_IsbL-0970_RLatLon0.03_PT028H.grib2 2026-05-02 06:15 866K
20260502T00Z_MSC_CAPS_GeopotentialHeight_IsbL-0985_RLatLon0.03_PT028H.grib2 2026-05-02 06:15 876K
20260502T00Z_MSC_CAPS_GeopotentialHeight_IsbL-1000_RLatLon0.03_PT028H.grib2 2026-05-02 06:15 882K
20260502T00Z_MSC_CAPS_GeopotentialHeight_IsbL-1015_RLatLon0.03_PT028H.grib2 2026-05-02 06:15 890K
20260502T00Z_MSC_CAPS_GeopotentialHeight_Sfc_RLatLon0.03_PT028H.grib2 2026-05-02 06:15 1.0M
20260502T00Z_MSC_CAPS_IcePellets-Accum_Sfc_RLatLon0.03_PT028H.grib2 2026-05-02 06:15 75K
20260502T00Z_MSC_CAPS_LatentHeatNetFlux_Sfc_RLatLon0.03_PT028H.grib2 2026-05-02 06:15 1.8M
20260502T00Z_MSC_CAPS_LiftedIndex-MU-VT_IsbL-0500_RLatLon0.03_PT028H.grib2 2026-05-02 06:15 3.3M
20260502T00Z_MSC_CAPS_MixedLayerThickness_Sfc_RLatLon0.03_PT028H.nc 2026-05-02 06:12 16M
20260502T00Z_MSC_CAPS_NetLongwaveRadiationFlux-Accum_Sfc_RLatLon0.03_PT028H.grib2 2026-05-02 06:15 2.6M
20260502T00Z_MSC_CAPS_NetShortwaveRadiationFlux-Accum_Sfc_RLatLon0.03_PT028H.grib2 2026-05-02 06:15 2.7M
20260502T00Z_MSC_CAPS_PlanetaryBoundaryLayerHeight_Sfc_RLatLon0.03_PT028H.grib2 2026-05-02 06:15 2.9M
20260502T00Z_MSC_CAPS_Precip-Accum_Sfc_RLatLon0.03_PT028H.grib2 2026-05-02 06:15 4.7M
20260502T00Z_MSC_CAPS_PrecipRate_Sfc_RLatLon0.03_PT028H.grib2 2026-05-02 06:15 596K
20260502T00Z_MSC_CAPS_PrecipType-Instant_Sfc_RLatLon0.03_PT028H.grib2 2026-05-02 06:15 2.0M
20260502T00Z_MSC_CAPS_Pressure_MSL_RLatLon0.03_PT028H.grib2 2026-05-02 06:15 768K
20260502T00Z_MSC_CAPS_Pressure_Sfc_RLatLon0.03_PT028H.grib2 2026-05-02 06:15 1.2M
20260502T00Z_MSC_CAPS_RadiativeTemp_Sfc_RLatLon0.03_PT028H.grib2 2026-05-02 06:15 2.0M
20260502T00Z_MSC_CAPS_Rain-Accum_Sfc_RLatLon0.03_PT028H.grib2 2026-05-02 06:15 2.4M
20260502T00Z_MSC_CAPS_RelativeHumidity_AGL-120m_RLatLon0.03_PT028H.grib2 2026-05-02 06:15 2.8M
20260502T00Z_MSC_CAPS_RelativeHumidity_AGL-2m_RLatLon0.03_PT028H.grib2 2026-05-02 06:15 2.9M
20260502T00Z_MSC_CAPS_RelativeHumidity_AGL-40m_RLatLon0.03_PT028H.grib2 2026-05-02 06:15 2.8M
20260502T00Z_MSC_CAPS_RelativeHumidity_AGL-80m_RLatLon0.03_PT028H.grib2 2026-05-02 06:15 2.8M
20260502T00Z_MSC_CAPS_RelativeHumidity_IsbL-0050_RLatLon0.03_PT028H.grib2 2026-05-02 06:15 731K
20260502T00Z_MSC_CAPS_RelativeHumidity_IsbL-0100_RLatLon0.03_PT028H.grib2 2026-05-02 06:15 870K
20260502T00Z_MSC_CAPS_RelativeHumidity_IsbL-0150_RLatLon0.03_PT028H.grib2 2026-05-02 06:15 586K
20260502T00Z_MSC_CAPS_RelativeHumidity_IsbL-0175_RLatLon0.03_PT028H.grib2 2026-05-02 06:15 486K
20260502T00Z_MSC_CAPS_RelativeHumidity_IsbL-0200_RLatLon0.03_PT028H.grib2 2026-05-02 06:15 691K
20260502T00Z_MSC_CAPS_RelativeHumidity_IsbL-0225_RLatLon0.03_PT028H.grib2 2026-05-02 06:15 896K
20260502T00Z_MSC_CAPS_RelativeHumidity_IsbL-0250_RLatLon0.03_PT028H.grib2 2026-05-02 06:15 1.1M
20260502T00Z_MSC_CAPS_RelativeHumidity_IsbL-0275_RLatLon0.03_PT028H.grib2 2026-05-02 06:15 1.4M
20260502T00Z_MSC_CAPS_RelativeHumidity_IsbL-0300_RLatLon0.03_PT028H.grib2 2026-05-02 06:15 1.5M
20260502T00Z_MSC_CAPS_RelativeHumidity_IsbL-0350_RLatLon0.03_PT028H.grib2 2026-05-02 06:15 2.0M
20260502T00Z_MSC_CAPS_RelativeHumidity_IsbL-0400_RLatLon0.03_PT028H.grib2 2026-05-02 06:15 1.9M
20260502T00Z_MSC_CAPS_RelativeHumidity_IsbL-0450_RLatLon0.03_PT028H.grib2 2026-05-02 06:15 2.0M
20260502T00Z_MSC_CAPS_RelativeHumidity_IsbL-0500_RLatLon0.03_PT028H.grib2 2026-05-02 06:15 2.1M
20260502T00Z_MSC_CAPS_RelativeHumidity_IsbL-0550_RLatLon0.03_PT028H.grib2 2026-05-02 06:15 2.2M
20260502T00Z_MSC_CAPS_RelativeHumidity_IsbL-0600_RLatLon0.03_PT028H.grib2 2026-05-02 06:15 2.2M
20260502T00Z_MSC_CAPS_RelativeHumidity_IsbL-0650_RLatLon0.03_PT028H.grib2 2026-05-02 06:15 2.4M
20260502T00Z_MSC_CAPS_RelativeHumidity_IsbL-0700_RLatLon0.03_PT028H.grib2 2026-05-02 06:15 2.4M
20260502T00Z_MSC_CAPS_RelativeHumidity_IsbL-0750_RLatLon0.03_PT028H.grib2 2026-05-02 06:15 2.4M
20260502T00Z_MSC_CAPS_RelativeHumidity_IsbL-0800_RLatLon0.03_PT028H.grib2 2026-05-02 06:15 2.4M
20260502T00Z_MSC_CAPS_RelativeHumidity_IsbL-0850_RLatLon0.03_PT028H.grib2 2026-05-02 06:15 2.5M
20260502T00Z_MSC_CAPS_RelativeHumidity_IsbL-0875_RLatLon0.03_PT028H.grib2 2026-05-02 06:15 2.6M
20260502T00Z_MSC_CAPS_RelativeHumidity_IsbL-0900_RLatLon0.03_PT028H.grib2 2026-05-02 06:15 2.6M
20260502T00Z_MSC_CAPS_RelativeHumidity_IsbL-0925_RLatLon0.03_PT028H.grib2 2026-05-02 06:15 2.6M
20260502T00Z_MSC_CAPS_RelativeHumidity_IsbL-0950_RLatLon0.03_PT028H.grib2 2026-05-02 06:15 2.7M
20260502T00Z_MSC_CAPS_RelativeHumidity_IsbL-0970_RLatLon0.03_PT028H.grib2 2026-05-02 06:15 2.7M
20260502T00Z_MSC_CAPS_RelativeHumidity_IsbL-0985_RLatLon0.03_PT028H.grib2 2026-05-02 06:15 2.8M
20260502T00Z_MSC_CAPS_RelativeHumidity_IsbL-1000_RLatLon0.03_PT028H.grib2 2026-05-02 06:15 2.8M
20260502T00Z_MSC_CAPS_RelativeHumidity_IsbL-1015_RLatLon0.03_PT028H.grib2 2026-05-02 06:15 2.8M
20260502T00Z_MSC_CAPS_Runoff-Accum_Sfc_RLatLon0.03_PT028H.grib2 2026-05-02 06:15 383K
20260502T00Z_MSC_CAPS_SeaIceAreaFraction_Sfc_RLatLon0.03_PT028H.nc 2026-05-02 06:12 15M
20260502T00Z_MSC_CAPS_SeaIceCompressiveStrength_Sfc_RLatLon0.03_PT028H.nc 2026-05-02 06:12 15M
20260502T00Z_MSC_CAPS_SeaIceDivergence_Sfc_RLatLon0.03_PT028H.nc 2026-05-02 06:12 15M
20260502T00Z_MSC_CAPS_SeaIceInternalPressure_Sfc_RLatLon0.03_PT028H.nc 2026-05-02 06:12 15M
20260502T00Z_MSC_CAPS_SeaIceShear_Sfc_RLatLon0.03_PT028H.nc 2026-05-02 06:12 14M
20260502T00Z_MSC_CAPS_SeaIceSnowTemp_Sfc_RLatLon0.03_PT028H.nc 2026-05-02 06:12 14M
20260502T00Z_MSC_CAPS_SeaIceSnowVolume_Sfc_RLatLon0.03_PT028H.nc 2026-05-02 06:12 15M
20260502T00Z_MSC_CAPS_SeaIceVelocityX_Sfc_RLatLon0.03_PT028H.nc 2026-05-02 06:12 15M
20260502T00Z_MSC_CAPS_SeaIceVelocityY_Sfc_RLatLon0.03_PT028H.nc 2026-05-02 06:12 15M
20260502T00Z_MSC_CAPS_SeaIceVolume_Sfc_RLatLon0.03_PT028H.nc 2026-05-02 06:12 15M
20260502T00Z_MSC_CAPS_SeaSurfaceHeight_Sfc_RLatLon0.03_PT028H.nc 2026-05-02 06:12 16M
20260502T00Z_MSC_CAPS_SeaWaterSalinity_DBS-0.5m_RLatLon0.03_PT028H.nc 2026-05-02 06:12 16M
20260502T00Z_MSC_CAPS_SeaWaterSalinity_DBS-all_RLatLon0.03_PT028H.nc 2026-05-02 06:12 107M
20260502T00Z_MSC_CAPS_SeaWaterTemp_DBS-0.5m_RLatLon0.03_PT028H.nc 2026-05-02 06:12 14M
20260502T00Z_MSC_CAPS_SeaWaterTemp_DBS-all_RLatLon0.03_PT028H.nc 2026-05-02 06:12 88M
20260502T00Z_MSC_CAPS_SeaWaterVelocityX_DBS-0.5m_RLatLon0.03_PT028H.nc 2026-05-02 06:12 17M
20260502T00Z_MSC_CAPS_SeaWaterVelocityX_DBS-all_RLatLon0.03_PT028H.nc 2026-05-02 06:12 207M
20260502T00Z_MSC_CAPS_SeaWaterVelocityY_DBS-0.5m_RLatLon0.03_PT028H.nc 2026-05-02 06:12 17M
20260502T00Z_MSC_CAPS_SeaWaterVelocityY_DBS-all_RLatLon0.03_PT028H.nc 2026-05-02 06:12 210M
20260502T00Z_MSC_CAPS_SensibleHeatNetFlux_Sfc_RLatLon0.03_PT028H.grib2 2026-05-02 06:15 2.1M
20260502T00Z_MSC_CAPS_ShowalterIndex_IsbL-0500_RLatLon0.03_PT028H.grib2 2026-05-02 06:15 4.3M
20260502T00Z_MSC_CAPS_Snow-Accum_Sfc_RLatLon0.03_PT028H.grib2 2026-05-02 06:15 3.7M
20260502T00Z_MSC_CAPS_SnowDensity_Sfc_RLatLon0.03_PT028H.grib2 2026-05-02 06:15 1.3M
20260502T00Z_MSC_CAPS_SnowDepthWaterEquivalent_Sfc_RLatLon0.03_PT028H.grib2 2026-05-02 06:15 672K
20260502T00Z_MSC_CAPS_SnowDepth_Sfc_RLatLon0.03_PT028H.grib2 2026-05-02 06:15 1.2M
20260502T00Z_MSC_CAPS_SoilTemp_DBS-0to10cm_RLatLon0.03_PT028H.grib2 2026-05-02 06:15 1.6M
20260502T00Z_MSC_CAPS_SoilTemp_Sfc_RLatLon0.03_PT028H.grib2 2026-05-02 06:15 1.8M
20260502T00Z_MSC_CAPS_SoilVolumetricIceContent_Sfc_RLatLon0.03_PT028H.grib2 2026-05-02 06:15 1.4M
20260502T00Z_MSC_CAPS_SoilVolumetricWaterContent_DBS-0to10cm_RLatLon0.03_PT028H.grib2 2026-05-02 06:15 1.3M
20260502T00Z_MSC_CAPS_SoilVolumetricWaterContent_DBS-0to1cm_RLatLon0.03_PT028H.grib2 2026-05-02 06:15 1.7M
20260502T00Z_MSC_CAPS_SpecificHumidity_AGL-120m_RLatLon0.03_PT028H.grib2 2026-05-02 06:15 1.7M
20260502T00Z_MSC_CAPS_SpecificHumidity_AGL-2m_RLatLon0.03_PT028H.grib2 2026-05-02 06:15 1.7M
20260502T00Z_MSC_CAPS_SpecificHumidity_AGL-40m_RLatLon0.03_PT028H.grib2 2026-05-02 06:15 1.4M
20260502T00Z_MSC_CAPS_SpecificHumidity_AGL-80m_RLatLon0.03_PT028H.grib2 2026-05-02 06:15 1.4M
20260502T00Z_MSC_CAPS_SpecificHumidity_IsbL-0050_RLatLon0.03_PT028H.grib2 2026-05-02 06:15 901K
20260502T00Z_MSC_CAPS_SpecificHumidity_IsbL-0100_RLatLon0.03_PT028H.grib2 2026-05-02 06:15 1.0M
20260502T00Z_MSC_CAPS_SpecificHumidity_IsbL-0150_RLatLon0.03_PT028H.grib2 2026-05-02 06:15 762K
20260502T00Z_MSC_CAPS_SpecificHumidity_IsbL-0175_RLatLon0.03_PT028H.grib2 2026-05-02 06:15 1.0M
20260502T00Z_MSC_CAPS_SpecificHumidity_IsbL-0200_RLatLon0.03_PT028H.grib2 2026-05-02 06:15 1.0M
20260502T00Z_MSC_CAPS_SpecificHumidity_IsbL-0225_RLatLon0.03_PT028H.grib2 2026-05-02 06:15 1.1M
20260502T00Z_MSC_CAPS_SpecificHumidity_IsbL-0250_RLatLon0.03_PT028H.grib2 2026-05-02 06:15 1.1M
20260502T00Z_MSC_CAPS_SpecificHumidity_IsbL-0275_RLatLon0.03_PT028H.grib2 2026-05-02 06:15 1.1M
20260502T00Z_MSC_CAPS_SpecificHumidity_IsbL-0300_RLatLon0.03_PT028H.grib2 2026-05-02 06:15 1.0M
20260502T00Z_MSC_CAPS_SpecificHumidity_IsbL-0350_RLatLon0.03_PT028H.grib2 2026-05-02 06:15 1.3M
20260502T00Z_MSC_CAPS_SpecificHumidity_IsbL-0400_RLatLon0.03_PT028H.grib2 2026-05-02 06:15 1.2M
20260502T00Z_MSC_CAPS_SpecificHumidity_IsbL-0450_RLatLon0.03_PT028H.grib2 2026-05-02 06:15 1.1M
20260502T00Z_MSC_CAPS_SpecificHumidity_IsbL-0500_RLatLon0.03_PT028H.grib2 2026-05-02 06:15 1.4M
20260502T00Z_MSC_CAPS_SpecificHumidity_IsbL-0550_RLatLon0.03_PT028H.grib2 2026-05-02 06:15 1.2M
20260502T00Z_MSC_CAPS_SpecificHumidity_IsbL-0600_RLatLon0.03_PT028H.grib2 2026-05-02 06:15 1.4M
20260502T00Z_MSC_CAPS_SpecificHumidity_IsbL-0650_RLatLon0.03_PT028H.grib2 2026-05-02 06:15 1.5M
20260502T00Z_MSC_CAPS_SpecificHumidity_IsbL-0700_RLatLon0.03_PT028H.grib2 2026-05-02 06:15 1.7M
20260502T00Z_MSC_CAPS_SpecificHumidity_IsbL-0750_RLatLon0.03_PT028H.grib2 2026-05-02 06:15 1.4M
20260502T00Z_MSC_CAPS_SpecificHumidity_IsbL-0800_RLatLon0.03_PT028H.grib2 2026-05-02 06:15 1.5M
20260502T00Z_MSC_CAPS_SpecificHumidity_IsbL-0850_RLatLon0.03_PT028H.grib2 2026-05-02 06:15 1.7M
20260502T00Z_MSC_CAPS_SpecificHumidity_IsbL-0875_RLatLon0.03_PT028H.grib2 2026-05-02 06:15 1.8M
20260502T00Z_MSC_CAPS_SpecificHumidity_IsbL-0900_RLatLon0.03_PT028H.grib2 2026-05-02 06:15 1.8M
20260502T00Z_MSC_CAPS_SpecificHumidity_IsbL-0925_RLatLon0.03_PT028H.grib2 2026-05-02 06:15 1.9M
20260502T00Z_MSC_CAPS_SpecificHumidity_IsbL-0950_RLatLon0.03_PT028H.grib2 2026-05-02 06:15 1.5M
20260502T00Z_MSC_CAPS_SpecificHumidity_IsbL-0970_RLatLon0.03_PT028H.grib2 2026-05-02 06:15 1.6M
20260502T00Z_MSC_CAPS_SpecificHumidity_IsbL-0985_RLatLon0.03_PT028H.grib2 2026-05-02 06:15 1.6M
20260502T00Z_MSC_CAPS_SpecificHumidity_IsbL-1000_RLatLon0.03_PT028H.grib2 2026-05-02 06:15 1.7M
20260502T00Z_MSC_CAPS_SpecificHumidity_IsbL-1015_RLatLon0.03_PT028H.grib2 2026-05-02 06:15 1.7M
20260502T00Z_MSC_CAPS_SpecificHumidity_Sfc_RLatLon0.03_PT028H.grib2 2026-05-02 06:15 2.0M
20260502T00Z_MSC_CAPS_StormRelativeHelicity_Sfc_RLatLon0.03_PT028H.grib2 2026-05-02 06:15 3.2M
20260502T00Z_MSC_CAPS_Thickness_IsbL-1000to0500_RLatLon0.03_PT028H.grib2 2026-05-02 06:15 476K
20260502T00Z_MSC_CAPS_TotalCloudCover_Sfc_RLatLon0.03_PT028H.grib2 2026-05-02 06:15 3.6M
20260502T00Z_MSC_CAPS_TurboclineDepth_Sfc_RLatLon0.03_PT028H.nc 2026-05-02 06:12 16M
20260502T00Z_MSC_CAPS_UpwardLongwaveRadiationFlux_NTAtm_RLatLon0.03_PT028H.grib2 2026-05-02 06:15 2.9M
20260502T00Z_MSC_CAPS_UpwardShortwaveRadiationFlux_NTAtm_RLatLon0.03_PT028H.grib2 2026-05-02 06:15 1.8M
20260502T00Z_MSC_CAPS_VerticalVelocity_IsbL-0250_RLatLon0.03_PT028H.grib2 2026-05-02 06:15 910K
20260502T00Z_MSC_CAPS_VerticalVelocity_IsbL-0500_RLatLon0.03_PT028H.grib2 2026-05-02 06:15 1.2M
20260502T00Z_MSC_CAPS_VerticalVelocity_IsbL-0700_RLatLon0.03_PT028H.grib2 2026-05-02 06:15 1.3M
20260502T00Z_MSC_CAPS_VerticalVelocity_IsbL-0850_RLatLon0.03_PT028H.grib2 2026-05-02 06:15 1.5M
20260502T00Z_MSC_CAPS_VerticalVelocity_IsbL-1000_RLatLon0.03_PT028H.grib2 2026-05-02 06:15 1.1M
20260502T00Z_MSC_CAPS_WindDir_AGL-10m_RLatLon0.03_PT028H.grib2 2026-05-02 06:15 2.3M
20260502T00Z_MSC_CAPS_WindDir_AGL-120m_RLatLon0.03_PT028H.grib2 2026-05-02 06:15 1.1M
20260502T00Z_MSC_CAPS_WindDir_AGL-40m_RLatLon0.03_PT028H.grib2 2026-05-02 06:15 1.2M
20260502T00Z_MSC_CAPS_WindDir_AGL-80m_RLatLon0.03_PT028H.grib2 2026-05-02 06:15 1.2M
20260502T00Z_MSC_CAPS_WindDir_IsbL-0050_RLatLon0.03_PT028H.grib2 2026-05-02 06:15 1.1M
20260502T00Z_MSC_CAPS_WindDir_IsbL-0100_RLatLon0.03_PT028H.grib2 2026-05-02 06:15 1.0M
20260502T00Z_MSC_CAPS_WindDir_IsbL-0150_RLatLon0.03_PT028H.grib2 2026-05-02 06:15 1.0M
20260502T00Z_MSC_CAPS_WindDir_IsbL-0175_RLatLon0.03_PT028H.grib2 2026-05-02 06:15 1.1M
20260502T00Z_MSC_CAPS_WindDir_IsbL-0200_RLatLon0.03_PT028H.grib2 2026-05-02 06:15 1.1M
20260502T00Z_MSC_CAPS_WindDir_IsbL-0225_RLatLon0.03_PT028H.grib2 2026-05-02 06:15 1.1M
20260502T00Z_MSC_CAPS_WindDir_IsbL-0250_RLatLon0.03_PT028H.grib2 2026-05-02 06:15 1.1M
20260502T00Z_MSC_CAPS_WindDir_IsbL-0275_RLatLon0.03_PT028H.grib2 2026-05-02 06:15 1.0M
20260502T00Z_MSC_CAPS_WindDir_IsbL-0300_RLatLon0.03_PT028H.grib2 2026-05-02 06:15 1.0M
20260502T00Z_MSC_CAPS_WindDir_IsbL-0350_RLatLon0.03_PT028H.grib2 2026-05-02 06:15 1.1M
20260502T00Z_MSC_CAPS_WindDir_IsbL-0400_RLatLon0.03_PT028H.grib2 2026-05-02 06:15 1.1M
20260502T00Z_MSC_CAPS_WindDir_IsbL-0450_RLatLon0.03_PT028H.grib2 2026-05-02 06:15 1.2M
20260502T00Z_MSC_CAPS_WindDir_IsbL-0500_RLatLon0.03_PT028H.grib2 2026-05-02 06:15 1.2M
20260502T00Z_MSC_CAPS_WindDir_IsbL-0550_RLatLon0.03_PT028H.grib2 2026-05-02 06:15 1.2M
20260502T00Z_MSC_CAPS_WindDir_IsbL-0600_RLatLon0.03_PT028H.grib2 2026-05-02 06:15 1.3M
20260502T00Z_MSC_CAPS_WindDir_IsbL-0650_RLatLon0.03_PT028H.grib2 2026-05-02 06:15 1.3M
20260502T00Z_MSC_CAPS_WindDir_IsbL-0700_RLatLon0.03_PT028H.grib2 2026-05-02 06:15 1.4M
20260502T00Z_MSC_CAPS_WindDir_IsbL-0750_RLatLon0.03_PT028H.grib2 2026-05-02 06:15 1.5M
20260502T00Z_MSC_CAPS_WindDir_IsbL-0800_RLatLon0.03_PT028H.grib2 2026-05-02 06:15 1.6M
20260502T00Z_MSC_CAPS_WindDir_IsbL-0850_RLatLon0.03_PT028H.grib2 2026-05-02 06:15 1.7M
20260502T00Z_MSC_CAPS_WindDir_IsbL-0875_RLatLon0.03_PT028H.grib2 2026-05-02 06:15 1.8M
20260502T00Z_MSC_CAPS_WindDir_IsbL-0900_RLatLon0.03_PT028H.grib2 2026-05-02 06:15 1.8M
20260502T00Z_MSC_CAPS_WindDir_IsbL-0925_RLatLon0.03_PT028H.grib2 2026-05-02 06:15 1.9M
20260502T00Z_MSC_CAPS_WindDir_IsbL-0950_RLatLon0.03_PT028H.grib2 2026-05-02 06:15 1.9M
20260502T00Z_MSC_CAPS_WindDir_IsbL-0970_RLatLon0.03_PT028H.grib2 2026-05-02 06:15 2.0M
20260502T00Z_MSC_CAPS_WindDir_IsbL-0985_RLatLon0.03_PT028H.grib2 2026-05-02 06:15 2.1M
20260502T00Z_MSC_CAPS_WindDir_IsbL-1000_RLatLon0.03_PT028H.grib2 2026-05-02 06:15 2.2M
20260502T00Z_MSC_CAPS_WindDir_IsbL-1015_RLatLon0.03_PT028H.grib2 2026-05-02 06:15 2.2M
20260502T00Z_MSC_CAPS_WindGust-Max_AGL-10m_RLatLon0.03_PT028H.grib2 2026-05-02 06:15 2.5M
20260502T00Z_MSC_CAPS_WindGust-Min_AGL-10m_RLatLon0.03_PT028H.grib2 2026-05-02 06:15 2.3M
20260502T00Z_MSC_CAPS_WindGust_AGL-10m_RLatLon0.03_PT028H.grib2 2026-05-02 06:15 2.5M
20260502T00Z_MSC_CAPS_WindSpeed_AGL-10m_RLatLon0.03_PT028H.grib2 2026-05-02 06:15 2.1M
20260502T00Z_MSC_CAPS_WindSpeed_AGL-120m_RLatLon0.03_PT028H.grib2 2026-05-02 06:15 1.1M
20260502T00Z_MSC_CAPS_WindSpeed_AGL-40m_RLatLon0.03_PT028H.grib2 2026-05-02 06:15 1.2M
20260502T00Z_MSC_CAPS_WindSpeed_AGL-80m_RLatLon0.03_PT028H.grib2 2026-05-02 06:15 1.1M
20260502T00Z_MSC_CAPS_WindSpeed_IsbL-0050_RLatLon0.03_PT028H.grib2 2026-05-02 06:15 1.0M
20260502T00Z_MSC_CAPS_WindSpeed_IsbL-0100_RLatLon0.03_PT028H.grib2 2026-05-02 06:15 1.0M
20260502T00Z_MSC_CAPS_WindSpeed_IsbL-0150_RLatLon0.03_PT028H.grib2 2026-05-02 06:15 1.1M
20260502T00Z_MSC_CAPS_WindSpeed_IsbL-0175_RLatLon0.03_PT028H.grib2 2026-05-02 06:15 1.2M
20260502T00Z_MSC_CAPS_WindSpeed_IsbL-0200_RLatLon0.03_PT028H.grib2 2026-05-02 06:15 941K
20260502T00Z_MSC_CAPS_WindSpeed_IsbL-0225_RLatLon0.03_PT028H.grib2 2026-05-02 06:15 1.0M
20260502T00Z_MSC_CAPS_WindSpeed_IsbL-0250_RLatLon0.03_PT028H.grib2 2026-05-02 06:15 972K
20260502T00Z_MSC_CAPS_WindSpeed_IsbL-0275_RLatLon0.03_PT028H.grib2 2026-05-02 06:15 1.0M
20260502T00Z_MSC_CAPS_WindSpeed_IsbL-0300_RLatLon0.03_PT028H.grib2 2026-05-02 06:15 1.0M
20260502T00Z_MSC_CAPS_WindSpeed_IsbL-0350_RLatLon0.03_PT028H.grib2 2026-05-02 06:15 1.0M
20260502T00Z_MSC_CAPS_WindSpeed_IsbL-0400_RLatLon0.03_PT028H.grib2 2026-05-02 06:15 1.0M
20260502T00Z_MSC_CAPS_WindSpeed_IsbL-0450_RLatLon0.03_PT028H.grib2 2026-05-02 06:15 1.0M
20260502T00Z_MSC_CAPS_WindSpeed_IsbL-0500_RLatLon0.03_PT028H.grib2 2026-05-02 06:15 1.4M
20260502T00Z_MSC_CAPS_WindSpeed_IsbL-0550_RLatLon0.03_PT028H.grib2 2026-05-02 06:15 1.4M
20260502T00Z_MSC_CAPS_WindSpeed_IsbL-0600_RLatLon0.03_PT028H.grib2 2026-05-02 06:15 1.4M
20260502T00Z_MSC_CAPS_WindSpeed_IsbL-0650_RLatLon0.03_PT028H.grib2 2026-05-02 06:15 1.4M
20260502T00Z_MSC_CAPS_WindSpeed_IsbL-0700_RLatLon0.03_PT028H.grib2 2026-05-02 06:15 1.5M
20260502T00Z_MSC_CAPS_WindSpeed_IsbL-0750_RLatLon0.03_PT028H.grib2 2026-05-02 06:15 1.5M
20260502T00Z_MSC_CAPS_WindSpeed_IsbL-0800_RLatLon0.03_PT028H.grib2 2026-05-02 06:15 1.6M
20260502T00Z_MSC_CAPS_WindSpeed_IsbL-0850_RLatLon0.03_PT028H.grib2 2026-05-02 06:15 1.7M
20260502T00Z_MSC_CAPS_WindSpeed_IsbL-0875_RLatLon0.03_PT028H.grib2 2026-05-02 06:15 1.7M
20260502T00Z_MSC_CAPS_WindSpeed_IsbL-0900_RLatLon0.03_PT028H.grib2 2026-05-02 06:15 1.8M
20260502T00Z_MSC_CAPS_WindSpeed_IsbL-0925_RLatLon0.03_PT028H.grib2 2026-05-02 06:15 1.8M
20260502T00Z_MSC_CAPS_WindSpeed_IsbL-0950_RLatLon0.03_PT028H.grib2 2026-05-02 06:15 1.9M
20260502T00Z_MSC_CAPS_WindSpeed_IsbL-0970_RLatLon0.03_PT028H.grib2 2026-05-02 06:15 2.0M
20260502T00Z_MSC_CAPS_WindSpeed_IsbL-0985_RLatLon0.03_PT028H.grib2 2026-05-02 06:15 2.0M
20260502T00Z_MSC_CAPS_WindSpeed_IsbL-1000_RLatLon0.03_PT028H.grib2 2026-05-02 06:15 2.0M
20260502T00Z_MSC_CAPS_WindSpeed_IsbL-1015_RLatLon0.03_PT028H.grib2 2026-05-02 06:15 2.1M
20260502T00Z_MSC_CAPS_WindU_AGL-10m_RLatLon0.03_PT028H.grib2 2026-05-02 06:15 2.0M
20260502T00Z_MSC_CAPS_WindU_AGL-120m_RLatLon0.03_PT028H.grib2 2026-05-02 06:15 893K
20260502T00Z_MSC_CAPS_WindU_AGL-40m_RLatLon0.03_PT028H.grib2 2026-05-02 06:15 1.2M
20260502T00Z_MSC_CAPS_WindU_AGL-80m_RLatLon0.03_PT028H.grib2 2026-05-02 06:15 1.2M
20260502T00Z_MSC_CAPS_WindU_IsbL-0050_RLatLon0.03_PT028H.grib2 2026-05-02 06:15 950K
20260502T00Z_MSC_CAPS_WindU_IsbL-0100_RLatLon0.03_PT028H.grib2 2026-05-02 06:15 822K
20260502T00Z_MSC_CAPS_WindU_IsbL-0150_RLatLon0.03_PT028H.grib2 2026-05-02 06:15 717K
20260502T00Z_MSC_CAPS_WindU_IsbL-0175_RLatLon0.03_PT028H.grib2 2026-05-02 06:15 854K
20260502T00Z_MSC_CAPS_WindU_IsbL-0200_RLatLon0.03_PT028H.grib2 2026-05-02 06:15 868K
20260502T00Z_MSC_CAPS_WindU_IsbL-0225_RLatLon0.03_PT028H.grib2 2026-05-02 06:15 889K
20260502T00Z_MSC_CAPS_WindU_IsbL-0250_RLatLon0.03_PT028H.grib2 2026-05-02 06:15 698K
20260502T00Z_MSC_CAPS_WindU_IsbL-0275_RLatLon0.03_PT028H.grib2 2026-05-02 06:15 707K
20260502T00Z_MSC_CAPS_WindU_IsbL-0300_RLatLon0.03_PT028H.grib2 2026-05-02 06:15 715K
20260502T00Z_MSC_CAPS_WindU_IsbL-0350_RLatLon0.03_PT028H.grib2 2026-05-02 06:15 724K
20260502T00Z_MSC_CAPS_WindU_IsbL-0400_RLatLon0.03_PT028H.grib2 2026-05-02 06:15 948K
20260502T00Z_MSC_CAPS_WindU_IsbL-0450_RLatLon0.03_PT028H.grib2 2026-05-02 06:15 970K
20260502T00Z_MSC_CAPS_WindU_IsbL-0500_RLatLon0.03_PT028H.grib2 2026-05-02 06:15 1.0M
20260502T00Z_MSC_CAPS_WindU_IsbL-0550_RLatLon0.03_PT028H.grib2 2026-05-02 06:15 922K
20260502T00Z_MSC_CAPS_WindU_IsbL-0600_RLatLon0.03_PT028H.grib2 2026-05-02 06:15 957K
20260502T00Z_MSC_CAPS_WindU_IsbL-0650_RLatLon0.03_PT028H.grib2 2026-05-02 06:15 1.0M
20260502T00Z_MSC_CAPS_WindU_IsbL-0700_RLatLon0.03_PT028H.grib2 2026-05-02 06:15 1.0M
20260502T00Z_MSC_CAPS_WindU_IsbL-0750_RLatLon0.03_PT028H.grib2 2026-05-02 06:15 1.1M
20260502T00Z_MSC_CAPS_WindU_IsbL-0800_RLatLon0.03_PT028H.grib2 2026-05-02 06:15 1.4M
20260502T00Z_MSC_CAPS_WindU_IsbL-0850_RLatLon0.03_PT028H.grib2 2026-05-02 06:15 1.2M
20260502T00Z_MSC_CAPS_WindU_IsbL-0875_RLatLon0.03_PT028H.grib2 2026-05-02 06:15 1.2M
20260502T00Z_MSC_CAPS_WindU_IsbL-0900_RLatLon0.03_PT028H.grib2 2026-05-02 06:15 1.3M
20260502T00Z_MSC_CAPS_WindU_IsbL-0925_RLatLon0.03_PT028H.grib2 2026-05-02 06:15 1.3M
20260502T00Z_MSC_CAPS_WindU_IsbL-0950_RLatLon0.03_PT028H.grib2 2026-05-02 06:15 1.4M
20260502T00Z_MSC_CAPS_WindU_IsbL-0970_RLatLon0.03_PT028H.grib2 2026-05-02 06:15 1.4M
20260502T00Z_MSC_CAPS_WindU_IsbL-0985_RLatLon0.03_PT028H.grib2 2026-05-02 06:15 1.8M
20260502T00Z_MSC_CAPS_WindU_IsbL-1000_RLatLon0.03_PT028H.grib2 2026-05-02 06:15 1.8M
20260502T00Z_MSC_CAPS_WindU_IsbL-1015_RLatLon0.03_PT028H.grib2 2026-05-02 06:15 2.0M
20260502T00Z_MSC_CAPS_WindV_AGL-10m_RLatLon0.03_PT028H.grib2 2026-05-02 06:15 2.0M
20260502T00Z_MSC_CAPS_WindV_AGL-120m_RLatLon0.03_PT028H.grib2 2026-05-02 06:15 1.1M
20260502T00Z_MSC_CAPS_WindV_AGL-40m_RLatLon0.03_PT028H.grib2 2026-05-02 06:15 1.2M
20260502T00Z_MSC_CAPS_WindV_AGL-80m_RLatLon0.03_PT028H.grib2 2026-05-02 06:15 1.1M
20260502T00Z_MSC_CAPS_WindV_IsbL-0050_RLatLon0.03_PT028H.grib2 2026-05-02 06:15 946K
20260502T00Z_MSC_CAPS_WindV_IsbL-0100_RLatLon0.03_PT028H.grib2 2026-05-02 06:15 1.0M
20260502T00Z_MSC_CAPS_WindV_IsbL-0150_RLatLon0.03_PT028H.grib2 2026-05-02 06:15 723K
20260502T00Z_MSC_CAPS_WindV_IsbL-0175_RLatLon0.03_PT028H.grib2 2026-05-02 06:15 857K
20260502T00Z_MSC_CAPS_WindV_IsbL-0200_RLatLon0.03_PT028H.grib2 2026-05-02 06:15 874K
20260502T00Z_MSC_CAPS_WindV_IsbL-0225_RLatLon0.03_PT028H.grib2 2026-05-02 06:15 892K
20260502T00Z_MSC_CAPS_WindV_IsbL-0250_RLatLon0.03_PT028H.grib2 2026-05-02 06:15 911K
20260502T00Z_MSC_CAPS_WindV_IsbL-0275_RLatLon0.03_PT028H.grib2 2026-05-02 06:15 920K
20260502T00Z_MSC_CAPS_WindV_IsbL-0300_RLatLon0.03_PT028H.grib2 2026-05-02 06:15 928K
20260502T00Z_MSC_CAPS_WindV_IsbL-0350_RLatLon0.03_PT028H.grib2 2026-05-02 06:15 942K
20260502T00Z_MSC_CAPS_WindV_IsbL-0400_RLatLon0.03_PT028H.grib2 2026-05-02 06:15 952K
20260502T00Z_MSC_CAPS_WindV_IsbL-0450_RLatLon0.03_PT028H.grib2 2026-05-02 06:15 1.0M
20260502T00Z_MSC_CAPS_WindV_IsbL-0500_RLatLon0.03_PT028H.grib2 2026-05-02 06:15 1.0M
20260502T00Z_MSC_CAPS_WindV_IsbL-0550_RLatLon0.03_PT028H.grib2 2026-05-02 06:15 925K
20260502T00Z_MSC_CAPS_WindV_IsbL-0600_RLatLon0.03_PT028H.grib2 2026-05-02 06:15 956K
20260502T00Z_MSC_CAPS_WindV_IsbL-0650_RLatLon0.03_PT028H.grib2 2026-05-02 06:15 1.2M
20260502T00Z_MSC_CAPS_WindV_IsbL-0700_RLatLon0.03_PT028H.grib2 2026-05-02 06:15 1.3M
20260502T00Z_MSC_CAPS_WindV_IsbL-0750_RLatLon0.03_PT028H.grib2 2026-05-02 06:15 1.1M
20260502T00Z_MSC_CAPS_WindV_IsbL-0800_RLatLon0.03_PT028H.grib2 2026-05-02 06:15 1.1M
20260502T00Z_MSC_CAPS_WindV_IsbL-0850_RLatLon0.03_PT028H.grib2 2026-05-02 06:15 1.2M
20260502T00Z_MSC_CAPS_WindV_IsbL-0875_RLatLon0.03_PT028H.grib2 2026-05-02 06:15 1.2M
20260502T00Z_MSC_CAPS_WindV_IsbL-0900_RLatLon0.03_PT028H.grib2 2026-05-02 06:15 1.3M
20260502T00Z_MSC_CAPS_WindV_IsbL-0925_RLatLon0.03_PT028H.grib2 2026-05-02 06:15 1.3M
20260502T00Z_MSC_CAPS_WindV_IsbL-0950_RLatLon0.03_PT028H.grib2 2026-05-02 06:15 1.3M
20260502T00Z_MSC_CAPS_WindV_IsbL-0970_RLatLon0.03_PT028H.grib2 2026-05-02 06:15 1.4M
20260502T00Z_MSC_CAPS_WindV_IsbL-0985_RLatLon0.03_PT028H.grib2 2026-05-02 06:15 1.8M
20260502T00Z_MSC_CAPS_WindV_IsbL-1000_RLatLon0.03_PT028H.grib2 2026-05-02 06:15 1.8M
20260502T00Z_MSC_CAPS_WindV_IsbL-1015_RLatLon0.03_PT028H.grib2 2026-05-02 06:15 2.0M